Mount Holly, NJ

8:28 AM EDT on June 23, 2017 (GMT -0400)
South Jersey Regional

Weather History for KVAY - January, 2014

Change the Weather History Date:

Monday, January 6, 2014

  Actual Average (KPNE) Record (KPNE)
Temperature  
Mean Temperature 39 °F -  
Max Temperature 60 °F 40 °F 73 °F (2007)
Min Temperature 14 °F 26 °F 12 °F (2014)
Degree Days  
Heating Degree Days 26    
Moisture  
Dew Point 42 °F    
Average Humidity 80    
Maximum Humidity 100    
Minimum Humidity 41    
Precipitation  
Precipitation 0.41 in - - ()
Sea Level Pressure  
Sea Level Pressure 29.58 in    
Wind  
Wind Speed 11 mph (SW)    
Max Wind Speed 23 mph    
Max Gust Speed 38 mph    
Visibility 7 miles    
Events Fog , Rain    
Averages and records for this station are not official NWS values.
T = Trace of Precipitation, MM = Missing Value Source: NWS Daily Summary

Daily Weather History Graph

Daily Weather History Graph

Search for Another Location

Airport or City:

Trip Planner

Search our weather history database for the weather conditions in past years. The results will help you decide how hot, cold, wet, or windy it might be!

Date:

Astronomy

Jan. 06, 2014 Rise Set
Actual Time 7:21 AM EST 4:49 PM EST
Civil Twilight 6:51 AM EST 5:19 PM EST
Nautical Twilight 6:17 AM EST 5:53 PM EST
Astronomical Twilight 5:44 AM EST 6:26 PM EST
Moon 10:35 AM EST (1/6) 11:19 PM EST (1/6)
Length of Visible Light 10h 28m
Length of Day
9h 28m
Waxing Crescent, 34% of the Moon is Illuminated
Jan 6
Waxing Crescent
Jan 7
First Quarter
Jan 15
Full
Jan 24
Last Quarter
Jan 30
New

Hourly Weather History & Observations

Time (EST) Temp. Windchill Dew Point Humidity Pressure Visibility Wind Dir Wind Speed Gust Speed Precip Events Conditions
12:54 AM 54.0 °F - 53.1 °F 97% 29.69 in 1.0 mi South 8.1 mph - 0.01 in   Overcast
1:01 AM 54.0 °F - 54.0 °F 100% 29.68 in 1.5 mi South 9.2 mph 18.4 mph N/A   Overcast
1:10 AM 55.0 °F - 54.0 °F 96% 29.68 in 3.0 mi South 8.1 mph 18.4 mph N/A   Overcast
1:26 AM 55.0 °F - 55.0 °F 100% 29.67 in 9.0 mi South 10.4 mph 21.9 mph N/A   Overcast
1:54 AM 55.9 °F - 55.0 °F 97% 29.67 in 9.0 mi South 6.9 mph 20.7 mph N/A   Overcast
2:54 AM 57.0 °F - 55.9 °F 96% 29.63 in 10.0 mi South 11.5 mph 19.6 mph N/A   Overcast
3:05 AM 57.9 °F - 55.9 °F 93% 29.61 in 10.0 mi South 6.9 mph 17.3 mph N/A   Overcast
3:54 AM 57.9 °F - 55.9 °F 93% 29.57 in 10.0 mi South 5.8 mph - N/A   Overcast
4:54 AM 60.1 °F - 57.0 °F 90% 29.53 in 10.0 mi South 8.1 mph - N/A   Overcast
5:54 AM 60.1 °F - 57.0 °F 90% 29.49 in 10.0 mi Variable 6.9 mph - N/A   Overcast
6:38 AM 60.1 °F - 57.0 °F 90% 29.46 in 10.0 mi South 11.5 mph 20.7 mph N/A   Overcast
6:54 AM 60.1 °F - 55.9 °F 86% 29.47 in 10.0 mi South 8.1 mph 21.9 mph 0.00 in Rain Light Rain
6:59 AM 59.0 °F - 55.9 °F 90% 29.46 in 7.0 mi South 10.4 mph 21.9 mph 0.01 in Rain Rain
7:07 AM 59.0 °F - 57.0 °F 93% 29.46 in 7.0 mi South 11.5 mph 18.4 mph 0.02 in Rain Light Rain
7:25 AM 59.0 °F - 57.0 °F 93% 29.45 in 7.0 mi South 10.4 mph 18.4 mph 0.04 in Rain Light Rain
7:37 AM 59.0 °F - 57.0 °F 93% 29.43 in 7.0 mi South 11.5 mph 25.3 mph 0.05 in Rain Light Rain
7:54 AM 59.0 °F - 57.0 °F 93% 29.42 in 5.0 mi South 11.5 mph 25.3 mph 0.07 in Rain Light Rain
8:05 AM 59.0 °F - 57.0 °F 93% 29.43 in 1.8 mi South 11.5 mph 23.0 mph 0.03 in Rain Rain
8:09 AM 59.0 °F - 57.0 °F 93% 29.44 in 0.8 mi SSW 11.5 mph 23.0 mph 0.11 in Rain Heavy Rain
8:17 AM 59.0 °F - 57.0 °F 93% 29.46 in 0.5 mi SW 13.8 mph 23.0 mph 0.18 in Fog , Rain Heavy Rain
8:22 AM 57.9 °F - 55.9 °F 93% 29.49 in 1.2 mi West 23.0 mph 32.2 mph 0.20 in Rain Heavy Rain
8:26 AM 55.9 °F - 52.0 °F 87% 29.50 in 2.0 mi West 23.0 mph 34.5 mph 0.20 in Rain Light Rain
8:34 AM 54.0 °F - 48.9 °F 83% 29.50 in 4.0 mi West 21.9 mph 36.8 mph 0.22 in Rain Rain
8:44 AM 53.1 °F - 48.9 °F 86% 29.51 in 4.0 mi West 13.8 mph - 0.23 in Rain Light Rain
8:54 AM 51.1 °F - 46.9 °F 86% 29.54 in 3.0 mi WNW 16.1 mph 26.5 mph 0.26 in Rain Rain
9:04 AM 48.9 °F - 44.1 °F 83% 29.55 in 5.0 mi West 10.4 mph 24.2 mph 0.01 in Rain Rain
9:54 AM 46.9 °F - 44.1 °F 90% 29.54 in 7.0 mi Calm Calm - 0.05 in Rain Light Rain
10:54 AM 46.9 °F - 43.0 °F 86% 29.54 in 6.0 mi WSW 8.1 mph - 0.01 in Rain Light Rain
11:24 AM 45.0 °F 37.6 °F 37.9 °F 76% 29.54 in 10.0 mi West 17.3 mph 23.0 mph 0.00 in Rain Light Rain
11:54 AM 42.1 °F 33.9 °F 35.1 °F 76% 29.55 in 10.0 mi WNW 17.3 mph 31.1 mph 0.01 in Rain Light Rain
12:54 PM 37.0 °F 28.1 °F 30.9 °F 79% 29.57 in 10.0 mi WNW 15.0 mph 26.5 mph 0.00 in Rain Light Rain
1:54 PM 37.0 °F 31.0 °F 30.9 °F 79% 29.55 in 10.0 mi West 8.1 mph - 0.00 in   Overcast
2:54 PM 39.0 °F 31.4 °F 26.1 °F 60% 29.57 in 10.0 mi NW 12.7 mph 19.6 mph N/A   Overcast
3:54 PM 37.0 °F 28.5 °F 19.9 °F 50% 29.60 in 10.0 mi West 13.8 mph 24.2 mph N/A   Scattered Clouds
4:54 PM 35.1 °F 26.9 °F 19.9 °F 54% 29.62 in 10.0 mi WNW 11.5 mph 20.7 mph N/A   Partly Cloudy
5:54 PM 34.0 °F 23.8 °F 16.0 °F 48% 29.66 in 10.0 mi West 16.1 mph 26.5 mph N/A   Mostly Cloudy
6:54 PM 32.0 °F 21.2 °F 14.0 °F 48% 29.72 in 10.0 mi WNW 16.1 mph 27.6 mph N/A   Scattered Clouds
7:54 PM 30.9 °F 21.7 °F 12.0 °F 46% 29.74 in 10.0 mi West 11.5 mph - N/A   Mostly Cloudy
8:54 PM 28.0 °F 15.3 °F 10.0 °F 47% 29.77 in 10.0 mi West 18.4 mph 27.6 mph N/A   Clear
9:54 PM 23.0 °F 8.3 °F 3.0 °F 42% 29.81 in 10.0 mi West 19.6 mph 29.9 mph N/A   Partly Cloudy
10:54 PM 18.0 °F 3.1 °F -0.9 °F 44% 29.86 in 10.0 mi WNW 16.1 mph 36.8 mph N/A   Clear
11:54 PM 14.0 °F -4.3 °F -6.0 °F 41% 29.92 in 10.0 mi West 21.9 mph 38.0 mph N/A   Clear